Terug naar catalogus

CZ-6A DEB

ActiefSSO
NORAD 56655·DEBRIS·🇨🇳 China

Gelanceerd Nov 11, 2022 vanaf Taiyuan Satellite Launch Center

Loading…

Volgende Passages (komende 24 uur)

TLE

VerouderendSource: Space-Track

Epoch: Sep 9, 2026, 08:44 UTC

1 56655U 22151AGF 26252.36394870  .00001092  00000-0  34453-3 0  9999
2 56655  98.6183 289.7345 0085751 107.2350 253.8245 14.40205104177179

Volg CZ-6A DEB in realtime met AllMySat

Download on the App Store